PUA2401 SACO-SULS

Flight info

Callsign PUA2401
Flight time 1h 17m
Altitude 41000
Route GENAS1G GENAS UW6 PAR UL417 CRR
Aircraft B788/H-SDE1E2E3FGHIJ2J3J4J5M1RWXY/LB1D1

Departure

Time 2026-04-25 23:32
Airport Ingeniero Aeronáutico Ambrosio L.V. Taravella International Airport (SACO)

Arrival

Time 2026-04-26 00:49
Airport Capitan Corbeta CA Curbelo International Airport (SULS)
Time Latitude Longitude Altitude Speed Heading
2026-04-25 22:59 -31.31486 -64.21169 1621 ft 0 kts 262°
2026-04-25 23:21 -31.31485 -64.21170 1621 ft 4 kts 265°
2026-04-25 23:22 -31.31481 -64.21142 1620 ft 4 kts 259°
2026-04-25 23:22 -31.31475 -64.21111 1625 ft 4 kts 248°
2026-04-25 23:22 -31.31461 -64.21086 1620 ft 4 kts 212°
2026-04-25 23:23 -31.31444 -64.21079 1621 ft 0 kts 181°
2026-04-25 23:25 -31.31445 -64.21079 1624 ft 1 kts 177°
2026-04-25 23:25 -31.31468 -64.21059 1621 ft 3 kts 130°
2026-04-25 23:26 -31.31468 -64.21012 1622 ft 12 kts 84°
2026-04-25 23:26 -31.31465 -64.20904 1619 ft 10 kts 90°
2026-04-25 23:26 -31.31442 -64.20850 1625 ft 7 kts 37°
2026-04-25 23:26 -31.31365 -64.20831 1622 ft 17 kts
2026-04-25 23:27 -31.31216 -64.20834 1622 ft 23 kts 359°
2026-04-25 23:27 -31.31078 -64.20835 1623 ft 19 kts 359°
2026-04-25 23:27 -31.30944 -64.20837 1620 ft 20 kts 359°
2026-04-25 23:27 -31.30805 -64.20840 1625 ft 20 kts 359°
2026-04-25 23:28 -31.30664 -64.20843 1624 ft 20 kts 359°
2026-04-25 23:28 -31.30522 -64.20844 1625 ft 21 kts 359°
2026-04-25 23:28 -31.30378 -64.20847 1621 ft 21 kts 359°
2026-04-25 23:28 -31.30234 -64.20849 1624 ft 21 kts 359°
2026-04-25 23:29 -31.30087 -64.20851 1626 ft 22 kts 359°
2026-04-25 23:29 -31.29935 -64.20853 1623 ft 22 kts 360°
2026-04-25 23:29 -31.29780 -64.20856 1622 ft 23 kts 359°
2026-04-25 23:29 -31.29696 -64.20865 1621 ft 16 kts 342°
2026-04-25 23:30 -31.29617 -64.20892 1622 ft 4 kts
2026-04-25 23:30 -31.29605 -64.20871 1623 ft 3 kts 84°
2026-04-25 23:30 -31.29631 -64.20857 1620 ft 7 kts 163°
2026-04-25 23:30 -31.29642 -64.20856 1623 ft 0 kts 179°
2026-04-25 23:31 -31.29645 -64.20856 1624 ft 4 kts 179°
2026-04-25 23:31 -31.29864 -64.20852 1624 ft 65 kts 179°
2026-04-25 23:31 -31.30562 -64.20843 1626 ft 133 kts 180°
2026-04-25 23:32 -31.31652 -64.20823 1904 ft 165 kts 185°
2026-04-25 23:32 -31.32761 -64.20565 2795 ft 166 kts 152°
2026-04-25 23:32 -31.33605 -64.19615 3562 ft 177 kts 128°
2026-04-25 23:32 -31.34176 -64.18200 3920 ft 209 kts 108°
2026-04-25 23:33 -31.34707 -64.16507 4337 ft 235 kts 113°
2026-04-25 23:33 -31.35431 -64.14760 5162 ft 237 kts 117°
2026-04-25 23:33 -31.36200 -64.13033 6002 ft 242 kts 117°
2026-04-25 23:33 -31.36960 -64.11273 6928 ft 244 kts 117°
2026-04-25 23:34 -31.37711 -64.09496 7781 ft 249 kts 116°
2026-04-25 23:34 -31.38481 -64.07678 8817 ft 251 kts 117°
2026-04-25 23:34 -31.39263 -64.05831 9770 ft 255 kts 115°
2026-04-25 23:34 -31.39634 -64.03791 10504 ft 268 kts 89°
2026-04-25 23:35 -31.39585 -64.01501 10856 ft 296 kts 89°
2026-04-25 23:35 -31.39553 -63.98978 11179 ft 323 kts 89°
2026-04-25 23:35 -31.39523 -63.96237 11503 ft 348 kts 89°
2026-04-25 23:35 -31.39487 -63.93394 12464 ft 349 kts 89°
2026-04-25 23:36 -31.39448 -63.90522 13283 ft 355 kts 89°
2026-04-25 23:36 -31.39423 -63.88609 13815 ft 358 kts 89°
2026-04-25 23:36 -31.39370 -63.84688 14899 ft 363 kts 89°
2026-04-25 23:36 -31.39330 -63.81711 15661 ft 368 kts 89°
2026-04-25 23:37 -31.39288 -63.78702 16408 ft 372 kts 89°
2026-04-25 23:37 -31.39245 -63.75699 17111 ft 376 kts 89°
2026-04-25 23:37 -31.39201 -63.72627 17807 ft 380 kts 89°
2026-04-25 23:37 -31.39155 -63.69510 18480 ft 384 kts 89°
2026-04-25 23:38 -31.39108 -63.66370 19133 ft 388 kts 89°
2026-04-25 23:38 -31.39103 -63.63198 19737 ft 391 kts 94°
2026-04-25 23:38 -31.39522 -63.60031 20320 ft 395 kts 100°
2026-04-25 23:38 -31.40034 -63.56863 20906 ft 398 kts 101°
2026-04-25 23:39 -31.40556 -63.53666 21463 ft 402 kts 101°
2026-04-25 23:39 -31.41053 -63.50433 22006 ft 405 kts 100°
2026-04-25 23:39 -31.41547 -63.47170 22524 ft 408 kts 100°
2026-04-25 23:39 -31.42055 -63.43889 23033 ft 411 kts 100°
2026-04-25 23:40 -31.42571 -63.40581 23504 ft 415 kts 100°
2026-04-25 23:40 -31.43087 -63.37239 23975 ft 417 kts 100°
2026-04-25 23:40 -31.43602 -63.33881 24419 ft 420 kts 100°
2026-04-25 23:40 -31.44120 -63.30499 24860 ft 423 kts 100°
2026-04-25 23:41 -31.44644 -63.27094 25267 ft 426 kts 100°
2026-04-25 23:41 -31.45168 -63.23670 25685 ft 429 kts 100°
2026-04-25 23:41 -31.45695 -63.20222 26105 ft 431 kts 100°
2026-04-25 23:41 -31.46216 -63.16800 26512 ft 434 kts 100°
2026-04-25 23:42 -31.46746 -63.13313 26920 ft 437 kts 100°
2026-04-25 23:42 -31.47239 -63.09786 27330 ft 439 kts 99°
2026-04-25 23:42 -31.47709 -63.06240 27727 ft 442 kts 99°
2026-04-25 23:42 -31.48200 -63.02674 28126 ft 445 kts 99°
2026-04-25 23:43 -31.48709 -62.99083 28511 ft 448 kts 99°
2026-04-25 23:43 -31.49213 -62.95469 28924 ft 450 kts 99°
2026-04-25 23:43 -31.49709 -62.91830 29333 ft 453 kts 99°
2026-04-25 23:43 -31.50209 -62.88179 29711 ft 456 kts 99°
2026-04-25 23:44 -31.50717 -62.84500 30100 ft 458 kts 99°
2026-04-25 23:44 -31.51226 -62.80801 30487 ft 461 kts 99°
2026-04-25 23:44 -31.51734 -62.77078 30868 ft 464 kts 99°
2026-04-25 23:44 -31.52244 -62.73332 31253 ft 467 kts 99°
2026-04-25 23:45 -31.52757 -62.69567 31626 ft 469 kts 99°
2026-04-25 23:45 -31.53099 -62.67058 31879 ft 471 kts 99°
2026-04-25 23:45 -31.53616 -62.63244 32243 ft 474 kts 99°
2026-04-25 23:45 -31.54302 -62.58174 32724 ft 477 kts 99°
2026-04-25 23:46 -31.54822 -62.54319 33082 ft 480 kts 99°
2026-04-25 23:46 -31.55176 -62.51692 33317 ft 482 kts 99°
2026-04-25 23:46 -31.55868 -62.46540 33758 ft 485 kts 99°
2026-04-25 23:46 -31.56394 -62.42614 34078 ft 488 kts 99°
2026-04-25 23:47 -31.56742 -62.40006 34281 ft 489 kts 99°
2026-04-25 23:47 -31.57271 -62.36042 34598 ft 492 kts 99°
2026-04-25 23:47 -31.57800 -62.32073 34881 ft 494 kts 99°
2026-04-25 23:47 -31.58327 -62.28098 35298 ft 493 kts 99°
2026-04-25 23:48 -31.58854 -62.24122 35727 ft 492 kts 99°
2026-04-25 23:48 -31.59377 -62.20162 36122 ft 491 kts 99°
2026-04-25 23:48 -31.59899 -62.16200 36507 ft 491 kts 99°
2026-04-25 23:48 -31.60419 -62.12247 36860 ft 491 kts 99°
2026-04-25 23:49 -31.60939 -62.08281 37212 ft 491 kts 99°
2026-04-25 23:49 -31.61458 -62.04319 37557 ft 491 kts 98°
2026-04-25 23:49 -31.61974 -62.00365 37890 ft 491 kts 98°
2026-04-25 23:49 -31.62489 -61.96406 38210 ft 491 kts 98°
2026-04-25 23:50 -31.63004 -61.92444 38538 ft 491 kts 98°
2026-04-25 23:50 -31.63518 -61.88472 38859 ft 491 kts 98°
2026-04-25 23:50 -31.64030 -61.84514 39174 ft 491 kts 98°
2026-04-25 23:50 -31.64541 -61.80551 39488 ft 491 kts 98°
2026-04-25 23:51 -31.65051 -61.76580 39792 ft 491 kts 98°
2026-04-25 23:51 -31.65560 -61.72614 40094 ft 491 kts 98°
2026-04-25 23:51 -31.66062 -61.68694 40385 ft 491 kts 98°
2026-04-25 23:51 -31.66568 -61.64723 40680 ft 491 kts 98°
2026-04-25 23:52 -31.67073 -61.60757 40967 ft 491 kts 98°
2026-04-25 23:52 -31.68088 -61.52753 40993 ft 496 kts 98°
2026-04-25 23:53 -31.69091 -61.44803 40990 ft 491 kts 98°
2026-04-25 23:53 -31.70086 -61.36874 40992 ft 490 kts 98°
2026-04-25 23:54 -31.71073 -61.28971 40993 ft 490 kts 98°
2026-04-25 23:54 -31.72051 -61.21101 40994 ft 490 kts 98°
2026-04-25 23:55 -31.73030 -61.13183 40993 ft 490 kts 98°
2026-04-25 23:55 -31.74005 -61.05252 40992 ft 490 kts 98°
2026-04-25 23:56 -31.74975 -60.97320 40993 ft 490 kts 98°
2026-04-25 23:56 -31.75940 -60.89384 40993 ft 490 kts 98°
2026-04-25 23:57 -31.76900 -60.81454 40994 ft 490 kts 98°
2026-04-25 23:57 -31.77856 -60.73512 40994 ft 490 kts 98°
2026-04-25 23:58 -31.78807 -60.65572 40994 ft 490 kts 98°
2026-04-25 23:58 -31.79745 -60.57690 40994 ft 490 kts 98°
2026-04-25 23:59 -31.81025 -60.49839 41037 ft 489 kts 111°
2026-04-25 23:59 -31.82477 -60.46225 41027 ft 490 kts 122°
2026-04-25 23:59 -31.84460 -60.42962 40998 ft 491 kts 127°
2026-04-26 00:00 -31.88640 -60.36607 41011 ft 490 kts 128°
2026-04-26 00:00 -31.92813 -60.30264 41007 ft 490 kts 128°
2026-04-26 00:01 -31.96978 -60.23899 41010 ft 490 kts 128°
2026-04-26 00:01 -32.01140 -60.17550 41011 ft 489 kts 128°
2026-04-26 00:02 -32.05286 -60.11199 41009 ft 489 kts 128°
2026-04-26 00:02 -32.09410 -60.04882 41014 ft 489 kts 128°
2026-04-26 00:03 -32.13575 -59.98485 41004 ft 488 kts 128°
2026-04-26 00:03 -32.17689 -59.92160 41006 ft 488 kts 128°
2026-04-26 00:04 -32.21824 -59.85789 41004 ft 490 kts 128°
2026-04-26 00:04 -32.25978 -59.79378 41005 ft 491 kts 128°
2026-04-26 00:05 -32.30132 -59.72958 41008 ft 492 kts 128°
2026-04-26 00:05 -32.34285 -59.66527 41010 ft 493 kts 127°
2026-04-26 00:06 -32.38432 -59.60072 41011 ft 492 kts 127°
2026-04-26 00:06 -32.42535 -59.53680 41008 ft 490 kts 127°
2026-04-26 00:07 -32.46659 -59.47243 41006 ft 489 kts 127°
2026-04-26 00:07 -32.50766 -59.40822 41005 ft 488 kts 127°
2026-04-26 00:08 -32.54868 -59.34397 40999 ft 488 kts 127°
2026-04-26 00:08 -32.58961 -59.27976 41001 ft 489 kts 127°
2026-04-26 00:09 -32.63068 -59.21521 41005 ft 491 kts 127°
2026-04-26 00:09 -32.67182 -59.15044 41010 ft 492 kts 127°
2026-04-26 00:10 -32.71301 -59.08550 41007 ft 491 kts 127°
2026-04-26 00:10 -32.75369 -59.02122 41006 ft 489 kts 127°
2026-04-26 00:11 -32.79450 -58.95664 41006 ft 488 kts 127°
2026-04-26 00:11 -32.83524 -58.89206 41001 ft 488 kts 127°
2026-04-26 00:12 -32.87596 -58.82740 41001 ft 489 kts 127°
2026-04-26 00:12 -32.91675 -58.76251 41009 ft 490 kts 127°
2026-04-26 00:13 -32.95764 -58.69737 41011 ft 491 kts 127°
2026-04-26 00:13 -32.99852 -58.63210 41010 ft 491 kts 127°
2026-04-26 00:14 -33.04227 -58.56973 41002 ft 490 kts 131°
2026-04-26 00:14 -33.08689 -58.50838 40998 ft 489 kts 131°
2026-04-26 00:15 -33.13158 -58.44708 40994 ft 489 kts 131°
2026-04-26 00:15 -33.17580 -58.38619 40996 ft 488 kts 131°
2026-04-26 00:16 -33.22023 -58.32497 40993 ft 488 kts 131°
2026-04-26 00:16 -33.26469 -58.26357 40994 ft 488 kts 131°
2026-04-26 00:17 -33.30920 -58.20202 40994 ft 490 kts 131°
2026-04-26 00:17 -33.35385 -58.14017 41002 ft 491 kts 131°
2026-04-26 00:18 -33.39833 -58.07844 41005 ft 492 kts 131°
2026-04-26 00:18 -33.44291 -58.01647 41008 ft 490 kts 131°
2026-04-26 00:19 -33.48738 -57.95455 41000 ft 489 kts 131°
2026-04-26 00:19 -33.53163 -57.89283 40994 ft 488 kts 131°
2026-04-26 00:20 -33.57580 -57.83088 40994 ft 489 kts 130°
2026-04-26 00:20 -33.61979 -57.76910 40996 ft 490 kts 131°
2026-04-26 00:21 -33.66405 -57.70685 41002 ft 490 kts 130°
2026-04-26 00:21 -33.70831 -57.64448 41003 ft 491 kts 130°
2026-04-26 00:22 -33.75259 -57.58199 41003 ft 491 kts 130°
2026-04-26 00:22 -33.77458 -57.55091 40627 ft 487 kts 130°
2026-04-26 00:22 -33.79658 -57.51979 39849 ft 490 kts 130°
2026-04-26 00:22 -33.81869 -57.48849 39162 ft 490 kts 130°
2026-04-26 00:23 -33.84069 -57.45732 38737 ft 484 kts 130°
2026-04-26 00:23 -33.86233 -57.42663 38259 ft 479 kts 130°
2026-04-26 00:23 -33.88376 -57.39621 37787 ft 475 kts 130°
2026-04-26 00:23 -33.90507 -57.36595 37320 ft 470 kts 130°
2026-04-26 00:24 -33.92613 -57.33611 36862 ft 465 kts 130°
2026-04-26 00:24 -33.94700 -57.30654 36397 ft 461 kts 130°
2026-04-26 00:24 -33.96739 -57.27760 35960 ft 457 kts 130°
2026-04-26 00:24 -33.98784 -57.24851 35478 ft 453 kts 130°
2026-04-26 00:25 -34.00810 -57.21969 35008 ft 449 kts 130°
2026-04-26 00:25 -34.02823 -57.19104 34513 ft 446 kts 130°
2026-04-26 00:25 -34.04822 -57.16258 34020 ft 442 kts 130°
2026-04-26 00:25 -34.06802 -57.13435 33547 ft 439 kts 130°
2026-04-26 00:26 -34.08766 -57.10631 33058 ft 435 kts 130°
2026-04-26 00:26 -34.10714 -57.07850 32574 ft 432 kts 130°
2026-04-26 00:26 -34.12649 -57.05084 32078 ft 429 kts 130°
2026-04-26 00:26 -34.14568 -57.02340 31598 ft 425 kts 130°
2026-04-26 00:27 -34.16467 -56.99622 31111 ft 422 kts 130°
2026-04-26 00:27 -34.18352 -56.96922 30606 ft 419 kts 130°
2026-04-26 00:27 -34.20219 -56.94246 30136 ft 415 kts 130°
2026-04-26 00:27 -34.22072 -56.91588 29643 ft 412 kts 130°
2026-04-26 00:28 -34.23912 -56.88947 29155 ft 409 kts 130°
2026-04-26 00:28 -34.25736 -56.86326 28665 ft 406 kts 130°
2026-04-26 00:28 -34.27526 -56.83750 28175 ft 403 kts 130°
2026-04-26 00:28 -34.29319 -56.81163 27682 ft 399 kts 130°
2026-04-26 00:29 -34.31097 -56.78596 27190 ft 396 kts 130°
2026-04-26 00:29 -34.32861 -56.76050 26696 ft 393 kts 130°
2026-04-26 00:29 -34.34613 -56.73519 26204 ft 390 kts 130°
2026-04-26 00:29 -34.36346 -56.71012 25704 ft 387 kts 130°
2026-04-26 00:30 -34.38069 -56.68519 25206 ft 384 kts 130°
2026-04-26 00:30 -34.39773 -56.66051 24710 ft 381 kts 130°
2026-04-26 00:30 -34.41470 -56.63592 24203 ft 378 kts 130°
2026-04-26 00:30 -34.43146 -56.61162 23723 ft 375 kts 130°
2026-04-26 00:31 -34.44809 -56.58748 23207 ft 372 kts 130°
2026-04-26 00:31 -34.46463 -56.56346 22712 ft 369 kts 130°
2026-04-26 00:31 -34.48100 -56.53968 22197 ft 366 kts 130°
2026-04-26 00:31 -34.49721 -56.51611 21779 ft 361 kts 130°
2026-04-26 00:32 -34.51297 -56.49317 21377 ft 356 kts 130°
2026-04-26 00:32 -34.52874 -56.47023 20972 ft 353 kts 130°
2026-04-26 00:32 -34.56024 -56.42439 20161 ft 353 kts 130°
2026-04-26 00:33 -34.57585 -56.40163 19747 ft 348 kts 130°
2026-04-26 00:33 -34.59120 -56.37924 19361 ft 345 kts 130°
2026-04-26 00:33 -34.60653 -56.35688 18962 ft 345 kts 130°
2026-04-26 00:33 -34.62189 -56.33445 18576 ft 344 kts 130°
2026-04-26 00:34 -34.63216 -56.31945 18304 ft 340 kts 130°
2026-04-26 00:34 -34.64718 -56.29748 17908 ft 337 kts 130°
2026-04-26 00:34 -34.66200 -56.27582 17535 ft 338 kts 130°
2026-04-26 00:34 -34.67702 -56.25384 17151 ft 337 kts 130°
2026-04-26 00:35 -34.69186 -56.23211 16758 ft 331 kts 130°
2026-04-26 00:35 -34.70651 -56.21065 16384 ft 331 kts 130°
2026-04-26 00:35 -34.72123 -56.18906 15987 ft 331 kts 130°
2026-04-26 00:35 -34.73589 -56.16756 15600 ft 326 kts 130°
2026-04-26 00:36 -34.75026 -56.14645 15221 ft 324 kts 130°
2026-04-26 00:36 -34.76467 -56.12529 14838 ft 325 kts 130°
2026-04-26 00:36 -34.77907 -56.10412 14462 ft 323 kts 130°
2026-04-26 00:36 -34.79323 -56.08330 14076 ft 317 kts 130°
2026-04-26 00:37 -34.80735 -56.06253 13704 ft 319 kts 130°
2026-04-26 00:37 -34.82148 -56.04172 13334 ft 318 kts 130°
2026-04-26 00:37 -34.83305 -56.01897 12963 ft 317 kts 109°
2026-04-26 00:37 -34.83848 -55.99298 12588 ft 316 kts 102°
2026-04-26 00:38 -34.84267 -55.96707 12216 ft 309 kts 101°
2026-04-26 00:38 -34.84657 -55.94162 11856 ft 311 kts 101°
2026-04-26 00:38 -34.85085 -55.91583 11492 ft 311 kts 102°
2026-04-26 00:38 -34.85523 -55.89014 11130 ft 308 kts 102°
2026-04-26 00:39 -34.85944 -55.86492 10738 ft 301 kts 101°
2026-04-26 00:39 -34.86350 -55.84018 10370 ft 294 kts 101°
2026-04-26 00:39 -34.86751 -55.81587 10030 ft 291 kts 101°
2026-04-26 00:39 -34.87150 -55.79176 9701 ft 289 kts 101°
2026-04-26 00:40 -34.87546 -55.76777 9377 ft 288 kts 101°
2026-04-26 00:40 -34.87940 -55.74388 9046 ft 287 kts 101°
2026-04-26 00:40 -34.88331 -55.72008 8716 ft 286 kts 101°
2026-04-26 00:40 -34.88722 -55.69634 8367 ft 285 kts 101°
2026-04-26 00:41 -34.89110 -55.67269 8016 ft 284 kts 101°
2026-04-26 00:41 -34.89495 -55.64919 7665 ft 282 kts 101°
2026-04-26 00:41 -34.89873 -55.62610 7319 ft 281 kts 101°
2026-04-26 00:41 -34.90254 -55.60282 6968 ft 279 kts 101°
2026-04-26 00:42 -34.90632 -55.57970 6617 ft 277 kts 101°
2026-04-26 00:42 -34.91007 -55.55672 6267 ft 276 kts 101°
2026-04-26 00:42 -34.91379 -55.53385 5916 ft 274 kts 101°
2026-04-26 00:42 -34.91749 -55.51112 5565 ft 273 kts 101°
2026-04-26 00:43 -34.92117 -55.48851 5215 ft 271 kts 101°
2026-04-26 00:43 -34.92481 -55.46604 4864 ft 269 kts 101°
2026-04-26 00:43 -34.92844 -55.44367 4514 ft 269 kts 101°
2026-04-26 00:43 -34.93205 -55.42137 4163 ft 267 kts 101°
2026-04-26 00:44 -34.93385 -55.39903 3793 ft 267 kts 82°
2026-04-26 00:44 -34.92879 -55.37744 3441 ft 265 kts 72°
2026-04-26 00:44 -34.92327 -55.35623 3100 ft 259 kts 71°
2026-04-26 00:44 -34.91789 -55.33605 3045 ft 241 kts 72°
2026-04-26 00:45 -34.91303 -55.31729 3040 ft 224 kts 72°
2026-04-26 00:45 -34.90850 -55.29963 3039 ft 216 kts 72°
2026-04-26 00:45 -34.90407 -55.28244 2988 ft 211 kts 72°
2026-04-26 00:45 -34.89974 -55.26573 2739 ft 204 kts 72°
2026-04-26 00:46 -34.89558 -55.24963 2470 ft 199 kts 72°
2026-04-26 00:46 -34.89153 -55.23399 2200 ft 186 kts 72°
2026-04-26 00:46 -34.88786 -55.21982 1961 ft 165 kts 72°
2026-04-26 00:46 -34.88460 -55.20723 1746 ft 149 kts 72°
2026-04-26 00:47 -34.88154 -55.19545 1550 ft 143 kts 72°
2026-04-26 00:47 -34.87858 -55.18402 1368 ft 142 kts 72°
2026-04-26 00:47 -34.87559 -55.17255 1170 ft 141 kts 72°
2026-04-26 00:47 -34.87264 -55.16114 995 ft 142 kts 72°
2026-04-26 00:48 -34.86967 -55.14969 801 ft 141 kts 71°
2026-04-26 00:48 -34.86669 -55.13821 543 ft 142 kts 71°
2026-04-26 00:48 -34.86364 -55.12695 309 ft 138 kts 72°
2026-04-26 00:48 -34.86082 -55.11576 150 ft 138 kts 73°
2026-04-26 00:49 -34.85803 -55.10525 105 ft 114 kts 72°
2026-04-26 00:49 -34.85676 -55.10039 107 ft 26 kts 72°
2026-04-26 00:49 -34.85678 -55.09915 107 ft 10 kts 132°
2026-04-26 00:49 -34.85750 -55.09878 106 ft 13 kts 163°
2026-04-26 00:50 -34.85828 -55.09849 106 ft 9 kts 161°
2026-04-26 00:50 -34.85879 -55.09828 106 ft 6 kts 161°
2026-04-26 00:50 -34.85896 -55.09821 106 ft 2 kts 162°
2026-04-26 00:50 -34.85907 -55.09817 106 ft 0 kts 162°
2026-04-26 00:51 -34.85908 -55.09817 106 ft 1 kts 165°
2026-04-26 00:51 -34.85916 -55.09826 106 ft 1 kts 218°
2026-04-26 00:51 -34.85913 -55.09841 106 ft 1 kts 285°
2026-04-26 00:51 -34.85904 -55.09874 106 ft 7 kts 278°
2026-04-26 00:52 -34.85911 -55.09918 105 ft 8 kts 253°
2026-04-26 00:52 -34.85931 -55.09968 106 ft 4 kts 225°
2026-04-26 00:52 -34.85960 -55.09979 106 ft 8 kts 199°
2026-04-26 00:52 -34.85996 -55.09983 106 ft 0 kts 155°